Regional Weather Roundup
Issued by NWS New Orleans/Baton Rouge, LA

Home | Current Version | Previous Version | Text Only | Print | Product List | Glossary On
Versions: 1 2 3 4 5 6 7 8 9 10 11 12 13 14 15 16 17 18 19 20 21 22 23 24 25 26 27 28 29 30 31 32 33 34 35 36 37 38 39 40 41 42 43 44 45 46 47 48 49 50
219
ASUS44 KLIX 300310
RWRLIX
NEW ORLEANS REGIONAL WEATHER ROUNDUP
NATIONAL WEATHER SERVICE NEW ORLEANS LA
900 PM CST THU JAN 29 2015

NOTE: "FAIR" INDICATES FEW OR NO CLOUDS BELOW 12,000 FEET WITH NO
      SIGNIFICANT WEATHER AND/OR OBSTRUCTIONS TO VISIBILITY.
      SKY/WX - SKY CONDITION AND SIGNIFICANT WEATHER.
      TMP - AIR TEMPERATURE.     DP    - DEWPOINT TEMPERATURE.
      RH  - RELATIVE HUMIDITY.   PRES  - PRESSURE.
      HI  - HEAT INDEX.          WCI   - WIND CHILL INDEX.

*  THESE STATIONS ARE NOT NWS OR FAA STATIONS AND ARE NOT UNDER
   NWS QUALITY CONTROL.

LAZ038-040-048-061>063-065>067-069-300400-
SOUTHEAST LOUISIANA

CITY           SKY/WX    TMP DP  RH WIND       PRES   REMARKS
N.O. AUDUBON     N/A     61  59  92 MISG        N/A
N.O. INTL ARPT PTCLDY    62  55  77 SW6       30.22S
N.O. LAKEFRONT PTCLDY    64  55  72 SW13      30.22R
N.O. DOWNTOWN* NOT AVBL
SLIDELL        PTCLDY    58  53  84 CALM      30.21R
BATON ROUGE    PTCLDY    62  51  67 W5        30.23R
BOOTHVILLE     CLEAR     62  60  93 SW5       30.24R
BELLE CHASSE   PTCLDY    64  56  75 SW8       30.22S
BOGALUSA*        N/A     55  51  85 CALM      30.23R
GALLIANO*      CLEAR     60  58  94 SW3       30.25S
NEW ROADS*     MOCLDY    58  53  82 W3        30.23S
GONZALES*        N/A     63  59  86 W3        30.23R
HAMMOND*       PTCLDY    63  52  67 CALM      30.24R
HOUMA*         CLEAR     59  58  96 SW5       30.24F
PORT FOURCHON* CLEAR     64  61  88 W6        30.28R

$$

MSZ070-080>082-300400-
SOUTHERN MISSISSIPPI

CITY           SKY/WX    TMP DP  RH WIND       PRES   REMARKS
MCCOMB         CLEAR     58  49  72 NW5       30.22R
GULFPORT       CLEAR     60  57  89 SW7       30.20S
BILOXI         CLEAR     58  57  96 SW10      30.20S
PASCAGOULA     CLEAR     60  56  86 VRB5      30.21S
STENNIS ARPT*  CLEAR     57  54  88 CALM      30.21R

$$

COASTAL OBSERVATIONS
LAKE AND NEARSHORE STATIONS

STATION/POSITION TIME  TEMP    WIND        PRES    WAVE
                       AIR SEA DIR/SP/G            HT/PER
                 (UTC) (F)     (DEG/KT/KT) (MB)    (FT/S)
PASCAGOULA       0300   61     210/ 11/ 14 1022.0
WAVELAND YACHT   0300   60     240/  7/  9 1021.9
GRAND ISLE       0300   64 64  260/  5/  7 1024.5
SOUTHWEST PASS   0300   61 48  200/  6/  8 1024.2
NEW CANAL        0300   65 58  230/  5/  7 1023.6
SHELL BEACH      0300   63 57  220/  7/  9 1023.2

OFFSHORE STATIONS

STATION/POSITION TIME  TEMP    WIND        PRES    WAVE
                       AIR SEA DIR/SP/G            HT/PER
                 (UTC) (F)     (DEG/KT/KT) (MB)    (FT/S)
64 S DAUPHIN ISL 0241   68 69  210/ 12/ 14 1023.8    2/ 5

$$




USA.gov is the U.S. government's official web portal to all federal, state and local government web resources and services.